Kezdőlap
METAR-TAF:

METAR-TAF

Repülőterek :

Marshall, Missouri, Amerikai Egyesült Államok

földrajzi szélesség: 39-05-44N, földrajzi hosszúság: 093-12-10W, magasság: 237 m

Jelenlegi meteorológiai megfigyelések

A jelentés 24 perccel ezelõtt készült, 07:35 UTC
Kelet-északkeleti szél 5 kt
Hőmérséklet 25°C
Páratartalom 89%
Légköri nyomás 1013 hPa
Látótávolság: 16.1 km
Szórványos felhőzet 7500 lábon

METAR: KMHL 070735Z AUTO 07005KT 10SM SCT075 25/23 A2991 RMK AO2 LTG DSNT N AND NE

Idő: 02:59 (07:59 UTC)


TAF: hiányzik

Meteorológiai megfigyelések és előrejelzések több, mint 4000 repülőtéren (METAR és TAF jelentéseket).

A térképen piros és sárga pontok jelzik az elérhető meteorológiai állomásokat.

Mozgassa az egeret a pont fölött, hogy megjelenjen az állomás neve.

Azután kattintson az időjárási megfigyelések és előrejelzések megtekintéséhez.

A térkép megváltoztatása: kattintson a fekete keresztel jelölt zöld gombra ráközelítéshez, a vonallal jelölt zöld gombra távolításhoz, vagy a zöld nyilakra a szomszédos térképek eléréséhez.


METAR-TAF: